Lake Harding Weather Center

Moon Phase Calendar



Lake Harding Water Level
Online Cameras

 


      

Current Conditions in Valley
6/23/2021 1:54:22 PM

82°F
Feels Like 85
Clouds
Humidity
58%
Pressure
30.06"
Wind
2.9 mph (WSW)
Dew Point
66°F
UV Index
10/10 (Very High)
Visibility
6 mi

Hourly Forecast

Date & Time Wed, Jun 23
1:00 PM
Wed, Jun 23
2:00 PM
Wed, Jun 23
3:00 PM
Wed, Jun 23
4:00 PM
Wed, Jun 23
5:00 PM
Wed, Jun 23
6:00 PM
Wed, Jun 23
7:00 PM
Wed, Jun 23
8:00 PM
Wed, Jun 23
9:00 PM
Wed, Jun 23
10:00 PM
Wed, Jun 23
11:00 PM
Thu, Jun 24
12:00 AM
Thu, Jun 24
1:00 AM
Thu, Jun 24
2:00 AM
Thu, Jun 24
3:00 AM
Thu, Jun 24
4:00 AM
Thu, Jun 24
5:00 AM
Thu, Jun 24
6:00 AM
Thu, Jun 24
7:00 AM
Thu, Jun 24
8:00 AM
Thu, Jun 24
9:00 AM
Thu, Jun 24
10:00 AM
Thu, Jun 24
11:00 AM
Thu, Jun 24
12:00 PM
Thu, Jun 24
1:00 PM
Thu, Jun 24
2:00 PM
Thu, Jun 24
3:00 PM
Thu, Jun 24
4:00 PM
Thu, Jun 24
5:00 PM
Thu, Jun 24
6:00 PM
Thu, Jun 24
7:00 PM
Thu, Jun 24
8:00 PM
Thu, Jun 24
9:00 PM
Thu, Jun 24
10:00 PM
Thu, Jun 24
11:00 PM
Fri, Jun 25
12:00 AM
Fri, Jun 25
1:00 AM
Fri, Jun 25
2:00 AM
Fri, Jun 25
3:00 AM
Fri, Jun 25
4:00 AM
Fri, Jun 25
5:00 AM
Fri, Jun 25
6:00 AM
Fri, Jun 25
7:00 AM
Fri, Jun 25
8:00 AM
Fri, Jun 25
9:00 AM
Fri, Jun 25
10:00 AM
Fri, Jun 25
11:00 AM
Fri, Jun 25
12:00 PM
Condition
Clouds

Clouds

Clouds

Clouds

Clouds

Clouds

Clouds

Clouds

Clouds

Clouds

Clouds

Clouds

Clouds

Clouds

Clouds

Clouds

Clouds

Clouds

Clouds

Clouds

Rain

Clouds

Clouds

Clouds

Rain

Rain

Rain

Rain

Clouds

Clouds

Clouds

Clouds

Clouds

Clouds

Clouds

Clouds

Clouds

Clouds

Clouds

Clouds

Clouds

Clouds

Clouds

Clouds

Clouds

Clouds

Clouds

Clouds
Temperature 83°F82°F83°F85°F85°F85°F82°F79°F76°F77°F76°F75°F75°F74°F73°F72°F71°F71°F70°F69°F69°F72°F75°F79°F82°F82°F85°F86°F84°F80°F78°F77°F75°F75°F75°F74°F73°F69°F67°F65°F64°F63°F63°F66°F71°F75°F79°F82°F
Feels Like 85°F85°F85°F87°F87°F86°F85°F79°F77°F77°F77°F76°F75°F75°F74°F72°F71°F71°F70°F70°F70°F73°F76°F79°F85°F85°F87°F88°F86°F80°F78°F77°F76°F75°F75°F74°F72°F68°F66°F65°F63°F62°F62°F65°F70°F75°F79°F82°F
Cloudiness 49%48%40%31%29%31%32%37%55%77%85%88%90%92%96%95%96%97%98%98%100%98%96%91%84%77%28%35%51%62%70%75%93%96%98%97%95%87%80%66%70%66%73%71%87%68%50%48%
Visibility 6 mi6 mi6 mi6 mi6 mi6 mi6 mi6 mi6 mi6 mi6 mi6 mi6 mi6 mi6 mi6 mi6 mi6 mi6 mi6 mi6 mi6 mi6 mi6 mi6 mi6 mi6 mi6 mi6 mi6 mi6 mi6 mi6 mi6 mi6 mi6 mi6 mi6 mi6 mi6 mi6 mi6 mi6 mi6 mi6 mi6 mi6 mi6 mi
Precipitation 0%0%0%0%0%0%0%0%0%0%0%0%0%0%8%16%12%8%4%8%32%13%3%15%42%58%66%62%54%52%52%52%9%2%0%0%0%0%0%0%0%0%0%0%0%0%0%0%
Humidity 55%58%55%52%50%51%60%69%69%67%68%71%73%70%68%71%72%73%76%80%87%88%82%70%65%62%53%50%53%63%67%63%62%62%60%58%58%63%65%65%64%64%66%66%55%49%47%44%
Dew Point 65°F66°F66°F65°F64°F64°F67°F67°F65°F65°F65°F65°F65°F64°F62°F62°F61°F61°F62°F63°F65°F68°F69°F68°F68°F68°F66°F65°F65°F66°F65°F63°F61°F61°F60°F58°F57°F56°F54°F53°F52°F51°F51°F54°F54°F55°F56°F58°F
Pressure 30.06"30.06"30.06"30.06"30.03"30.03"30.03"30.06"30.06"30.06"30.09"30.09"30.09"30.09"30.09"30.09"30.09"30.09"30.12"30.15"30.15"30.18"30.18"30.15"30.15"30.15"30.09"30.09"30.06"30.09"30.09"30.09"30.12"30.15"30.15"30.12"30.12"30.12"30.12"30.12"30.12"30.12"30.15"30.15"30.18"30.18"30.15"30.15"
Wind Speed 2.2 mph2.9 mph2.9 mph2.7 mph3 mph3.8 mph4.4 mph3.7 mph2.5 mph1.1 mph3.2 mph4 mph4.5 mph5.2 mph4.7 mph2.5 mph1.8 mph4.1 mph5.1 mph5.6 mph6.9 mph9.2 mph10.3 mph10.6 mph11 mph10 mph9.1 mph8 mph7.7 mph5.6 mph5.9 mph7.4 mph5.4 mph6.1 mph7.2 mph7.3 mph7.7 mph5.5 mph5 mph4.6 mph5.1 mph4.8 mph4.8 mph4.9 mph6.9 mph7 mph6.7 mph5.8 mph
Wind
Direction
262°
W
252°
WSW
246°
WSW
242°
WSW
229°
SW
212°
SSW
206°
SSW
219°
SW
217°
SW
137°
SE
92°
E
95°
E
93°
E
90°
E
100°
E
141°
SE
65°
ENE
60°
ENE
80°
E
86°
E
94°
E
98°
E
101°
E
103°
ESE
103°
ESE
108°
ESE
116°
ESE
121°
ESE
122°
ESE
94°
E
79°
E
89°
E
102°
ESE
95°
E
98°
E
94°
E
105°
ESE
103°
ESE
108°
ESE
97°
E
81°
E
62°
ENE
73°
ENE
86°
E
92°
E
96°
E
101°
E
97°
E

Daily Forecast

Date High Low Precip. Humidity
Today
Jun 23

Clouds
85 °F
61 °F
0%
55%
Thursday
Jun 24

Rain
86 °F
69 °F
66%
65%
Friday
Jun 25

Clouds
88 °F
64 °F
0%
40%
Saturday
Jun 26

Rain
89 °F
70 °F
32%
45%
Sunday
Jun 27

Rain
88 °F
70 °F
98%
62%
Monday
Jun 28

Rain
88 °F
69 °F
99%
48%
Tuesday
Jun 29

Clear
90 °F
69 °F
40%
41%
Wednesday
Jun 30

Clouds
91 °F
71 °F
4%
40%
Thursday
Jul 1

Clouds
95 °F
75 °F
33%
37%
Friday
Jul 2

Rain
82 °F
71 °F
100%
79%
Saturday
Jul 3

Rain
83 °F
72 °F
100%
88%
Sunday
Jul 4

Rain
73 °F
69 °F
100%
96%
Monday
Jul 5

Rain
74 °F
69 °F
100%
96%
Tuesday
Jul 6

Rain
76 °F
70 °F
100%
89%
Wednesday
Jul 7

Clouds
90 °F
70 °F
0%
48%
Thursday
Jul 8

Rain
90 °F
75 °F
36%
42%

Temperature 8-14 Day Outlook



Precipitation 8-14 Day Outlook




Quick Links
Lake Harding News
Lake Harding Photos
Lake Harding Videos




About Us
Contact Us
Site Map
Search Site
Advertise With Us
   
www.LakeHardingNews.com
THE LAKE HARDING WEBSITE

Copyright 2021, Lakes Online
Privacy    |    Legal